• In Uzbekistan
  • List of Countries
  • For 7 days
  • Water Temperature
  • Weather Map
  • Weather Widgets
  • user-avatar
    Login

    Hourly Weather Francistown

    Today, 16 December, Monday

    Time Temperature Precipitation Wind Pressure Humidity
    00:00 +31°C° 0 mm 1 mps 676 mmHg 27%
    01:00 +30°C° 0 mm 1 mps 675 mmHg 28%
    02:00 +30°C° 0 mm 1 mps 675 mmHg 29%
    03:00 +29°C° 0 mm 1 mps 675 mmHg 30%
    04:00 +28°C° 0 mm 1 mps 675 mmHg 31%
    05:00 +27°C° 0 mm 1 mps 676 mmHg 33%
    06:00 +27°C° 0 mm 3 mps 676 mmHg 41%
    07:00 +27°C° 0 mm 6 mps 677 mmHg 50%
    08:00 +28°C° 0 mm 8 mps 678 mmHg 56%
    09:00 +29°C° 0 mm 8 mps 678 mmHg 54%
    10:00 +29°C° 0 mm 8 mps 678 mmHg 52%
    11:00 +31°C° 0 mm 8 mps 678 mmHg 49%
    12:00 +32°C° 0 mm 8 mps 678 mmHg 48%
    13:00 +32°C° 0 mm 8 mps 678 mmHg 46%
    14:00 +33°C° 0 mm 7 mps 677 mmHg 44%
    15:00 +32°C° 0 mm 8 mps 677 mmHg 47%
    16:00 +31°C° 0 mm 8 mps 676 mmHg 49%
    17:00 +29°C° 0 mm 8 mps 676 mmHg 52%
    18:00 +27°C° 0 mm 8 mps 676 mmHg 57%
    19:00 +26°C° 0 mm 7 mps 676 mmHg 62%
    20:00 +23°C° 0 mm 7 mps 677 mmHg 67%
    21:00 +22°C° 0 mm 7 mps 677 mmHg 71%
    22:00 +21°C° 0 mm 7 mps 677 mmHg 74%
    23:00 +20°C° 0 mm 7 mps 678 mmHg 78%

    Tomorrow, 17 December, Tuesday

    Time Temperature Precipitation Wind Pressure Humidity
    00:00 +20°C° 0 mm 7 mps 677 mmHg 77%
    01:00 +20°C° 0 mm 7 mps 677 mmHg 76%
    02:00 +20°C° 0 mm 6 mps 677 mmHg 75%
    03:00 +20°C° 0 mm 6 mps 677 mmHg 74%
    04:00 +20°C° 0 mm 6 mps 677 mmHg 73%
    05:00 +20°C° 0 mm 6 mps 677 mmHg 73%
    06:00 +21°C° 0 mm 6 mps 678 mmHg 70%
    07:00 +22°C° 0 mm 6 mps 678 mmHg 68%
    08:00 +22°C° 0 mm 6 mps 679 mmHg 66%
    09:00 +25°C° 0 mm 5 mps 679 mmHg 60%
    10:00 +27°C° 0 mm 5 mps 679 mmHg 55%
    11:00 +28°C° 0 mm 5 mps 679 mmHg 49%
    12:00 +30°C° 0 mm 5 mps 678 mmHg 45%
    13:00 +32°C° 0 mm 4 mps 678 mmHg 41%
    14:00 +34°C° 0 mm 4 mps 677 mmHg 36%
    15:00 +34°C° 0 mm 4 mps 677 mmHg 35%
    16:00 +34°C° 0 mm 4 mps 676 mmHg 33%
    17:00 +34°C° 0 mm 5 mps 676 mmHg 31%
    18:00 +32°C° 0 mm 5 mps 676 mmHg 34%
    19:00 +30°C° 0 mm 5 mps 676 mmHg 38%
    20:00 +28°C° 0 mm 4 mps 676 mmHg 41%
    21:00 +27°C° 0 mm 4 mps 676 mmHg 44%
    22:00 +26°C° 0 mm 4 mps 676 mmHg 48%
    23:00 +25°C° 0 mm 3 mps 676 mmHg 51%

    Day after tomorrow, 18 December, Wednesday

    Time Temperature Precipitation Wind Pressure Humidity
    00:00 +24°C° 0 mm 3 mps 676 mmHg 54%
    01:00 +22°C° 0 mm 3 mps 675 mmHg 58%
    02:00 +23°C° 0 mm 2 mps 675 mmHg 62%
    03:00 +21°C° 0 mm 2 mps 675 mmHg 63%
    04:00 +21°C° 0 mm 2 mps 675 mmHg 65%
    05:00 +20°C° 0 mm 2 mps 675 mmHg 66%
    06:00 +23°C° 0 mm 2 mps 675 mmHg 57%
    07:00 +26°C° 0 mm 2 mps 676 mmHg 48%
    08:00 +28°C° 0 mm 2 mps 677 mmHg 39%
    09:00 +30°C° 0 mm 2 mps 677 mmHg 33%
    10:00 +32°C° 0 mm 1 mps 677 mmHg 27%
    11:00 +35°C° 0 mm 1 mps 677 mmHg 21%
    12:00 +35°C° 0 mm 1 mps 677 mmHg 19%
    13:00 +36°C° 0 mm 1 mps 676 mmHg 18%
    14:00 +37°C° 0 mm 1 mps 676 mmHg 17%
    15:00 +37°C° 0 mm 1 mps 675 mmHg 17%
    16:00 +36°C° 0 mm 1 mps 674 mmHg 17%
    17:00 +37°C° 0 mm 2 mps 674 mmHg 16%
    18:00 +34°C° 0 mm 1 mps 674 mmHg 18%
    19:00 +33°C° 0 mm 1 mps 674 mmHg 20%
    20:00 +31°C° 0 mm 1 mps 674 mmHg 22%
    21:00 +30°C° 0 mm 1 mps 674 mmHg 23%
    22:00 +30°C° 0 mm 1 mps 674 mmHg 24%
    23:00 +29°C° 0 mm 1 mps 674 mmHg 25%

    19 December, Thursday

    Time Temperature Precipitation Wind Pressure Humidity
    00:00 +28°C° 0 mm 2 mps 674 mmHg 26%
    01:00 +28°C° 0 mm 2 mps 674 mmHg 26%
    02:00 +27°C° 0 mm 2 mps 673 mmHg 26%
    03:00 +26°C° 0 mm 2 mps 673 mmHg 27%
    04:00 +26°C° 0 mm 2 mps 674 mmHg 27%
    05:00 +26°C° 0 mm 3 mps 674 mmHg 28%
    06:00 +28°C° 0 mm 3 mps 674 mmHg 26%
    07:00 +30°C° 0 mm 3 mps 675 mmHg 24%
    08:00 +33°C° 0 mm 4 mps 676 mmHg 22%
    09:00 +35°C° 0 mm 3 mps 676 mmHg 21%
    10:00 +37°C° 0 mm 2 mps 676 mmHg 19%
    11:00 +39°C° 0 mm 2 mps 676 mmHg 18%
    12:00 +39°C° 0 mm 1 mps 675 mmHg 18%
    13:00 +40°C° 0 mm 1 mps 675 mmHg 17%
    14:00 +40°C° 0 mm 1 mps 674 mmHg 17%
    15:00 +40°C° 0 mm 1 mps 674 mmHg 17%
    16:00 +39°C° 0 mm 1 mps 674 mmHg 18%
    17:00 +39°C° 0 mm 1 mps 673 mmHg 18%
    18:00 +37°C° 0 mm 2 mps 674 mmHg 22%
    19:00 +36°C° 0 mm 2 mps 674 mmHg 25%
    20:00 +34°C° 0 mm 2 mps 674 mmHg 28%
    21:00 +32°C° 0 mm 2 mps 674 mmHg 33%
    22:00 +30°C° 0 mm 2 mps 674 mmHg 38%
    23:00 +29°C° 0 mm 2 mps 674 mmHg 42%

    20 December, Friday

    Time Temperature Precipitation Wind Pressure Humidity
    00:00 +29°C° 0 mm 1 mps 674 mmHg 43%
    01:00 +28°C° 0 mm 1 mps 674 mmHg 44%
    02:00 +28°C° 0 mm 1 mps 674 mmHg 45%
    03:00 +27°C° 0 mm 2 mps 674 mmHg 44%
    04:00 +27°C° 0 mm 3 mps 675 mmHg 43%
    05:00 +26°C° 0 mm 4 mps 675 mmHg 41%
    06:00 +27°C° 0 mm 5 mps 676 mmHg 41%
    07:00 +28°C° 0 mm 6 mps 676 mmHg 41%
    08:00 +29°C° 0 mm 6 mps 677 mmHg 41%
    09:00 +32°C° 0 mm 6 mps 677 mmHg 36%
    10:00 +34°C° 0 mm 6 mps 677 mmHg 31%
    11:00 +37°C° 0 mm 5 mps 678 mmHg 26%
    12:00 +39°C° 0 mm 5 mps 677 mmHg 24%
    13:00 +40°C° 0 mm 6 mps 677 mmHg 22%
    14:00 +41°C° 0 mm 6 mps 676 mmHg 20%
    15:00 +40°C° 0 mm 6 mps 676 mmHg 21%
    16:00 +40°C° 0 mm 6 mps 675 mmHg 22%
    17:00 +39°C° 0 mm 7 mps 675 mmHg 23%
    18:00 +36°C° 0 mm 6 mps 675 mmHg 26%
    19:00 +35°C° 0 mm 6 mps 675 mmHg 29%
    20:00 +33°C° 0 mm 6 mps 675 mmHg 32%
    21:00 +32°C° 0 mm 5 mps 675 mmHg 34%
    22:00 +30°C° 0 mm 5 mps 676 mmHg 36%
    23:00 +29°C° 0 mm 5 mps 676 mmHg 38%

    21 December, Saturday

    Time Temperature Precipitation Wind Pressure Humidity
    00:00 +28°C° 0 mm 4 mps 676 mmHg 39%
    01:00 +27°C° 0 mm 4 mps 676 mmHg 40%
    02:00 +26°C° 0 mm 4 mps 675 mmHg 42%
    03:00 +26°C° 0 mm 4 mps 675 mmHg 44%
    04:00 +25°C° 0 mm 4 mps 675 mmHg 45%
    05:00 +24°C° 0 mm 3 mps 676 mmHg 47%
    06:00 +26°C° 0 mm 4 mps 676 mmHg 45%
    07:00 +28°C° 0 mm 5 mps 677 mmHg 42%
    08:00 +30°C° 0 mm 6 mps 677 mmHg 39%
    09:00 +33°C° 0 mm 6 mps 677 mmHg 34%
    10:00 +35°C° 0 mm 5 mps 678 mmHg 28%
    11:00 +37°C° 0 mm 5 mps 678 mmHg 22%
    12:00 +39°C° 0 mm 5 mps 677 mmHg 20%
    13:00 +40°C° 0 mm 5 mps 677 mmHg 18%
    14:00 +40°C° 0 mm 5 mps 676 mmHg 16%
    15:00 +40°C° 0 mm 5 mps 676 mmHg 16%
    16:00 +40°C° 0 mm 5 mps 675 mmHg 16%
    17:00 +40°C° 0 mm 5 mps 675 mmHg 16%
    18:00 +37°C° 0 mm 5 mps 675 mmHg 20%
    19:00 +34°C° 0 mm 5 mps 675 mmHg 25%
    20:00 +32°C° 0 mm 5 mps 675 mmHg 29%
    21:00 +32°C° 0 mm 5 mps 675 mmHg 32%
    22:00 +30°C° 0 mm 5 mps 676 mmHg 36%
    23:00 +29°C° 0 mm 4 mps 676 mmHg 39%
    Show more